Regional Weather Roundup
Issued by NWS

Home | Current Version | Previous Version | Text Only | Print | Product List | Glossary On
Versions: 1 2 3 4 5 6 7 8 9 10 11 12 13 14 15 16 17 18 19 20 21 22 23 24 25 26 27
000
ASUS43 KDMX 231207
RWRIA

WEATHER ROUNDUP FOR IOWA
NATIONAL WEATHER SERVICE DES MOINES IA
700 AM CDT WED APR 23 2014

NOTE: "FAIR" INDICATES FEW OR NO CLOUDS BELOW 12,000 FEET WITH NO
SIGNIFICANT WEATHER AND/OR OBSTRUCTIONS TO VISIBILITY.

* - THESE STATIONS ARE NOT NWS STATIONS...THUS NOT UNDER NWS
QUALITY CONTROL.  THEY ALSO DO NOT REPORT WEATHER SUCH
AS PRECIPITATION OR FOG.

IAZ001>003-012>014-020>022-031>034-043>046-231300-
   NORTHWEST IOWA

CITY           SKY/WX    TMP DP  RH WIND       PRES   REMARKS
CARROLL *      CLOUDY    48  34  57 SE13      30.01R
CHEROKEE *     RAIN      46  37  71 SE14G21   29.95F
DENISON *      CLOUDY    50  34  53 SE13G22   29.96F
LE MARS *      CLOUDY    50  39  66 SE13G22   29.91F
ORANGE CITY *  LGT RAIN  50  36  57 E12G23    29.93R
SHELDON *      MOCLDY    46  37  71 E17       29.94F
SIOUX CITY     CLOUDY    50  37  61 SE21G29   29.88F
6HR MIN TEMP:  49; 6HR MAX TEMP:  56; 6HR PCP:  0.02;

SPENCER        CLOUDY    48  34  58 SE14      30.01R
6HR MIN TEMP:  47; 6HR MAX TEMP:  54; 6HR PCP: TRACE;

STORM LAKE *   CLOUDY    48  34  57 SE16G24   29.99S
$$

IAZ055>058-069>071-079>083-090>094-231300-
   SOUTHWEST IOWA

CITY           SKY/WX    TMP DP  RH WIND       PRES   REMARKS
ATLANTIC *     CLOUDY    52  32  46 SE10      29.99R
AUDUBON *      CLOUDY    50  28  43 SE12      30.00S
CLARINDA *     CLOUDY    52  36  54 SE10      30.00R
COUNCIL BLFS * CLOUDY    52  36  54 SE14      29.94S
CRESTON *      CLOUDY    50  30  46 SE18      30.01R
HARLAN  *      CLOUDY    50  34  53 SE13      30.01R
LAMONI         CLOUDY    50  30  46 SE10      30.03R
6HR MIN TEMP:  49; 6HR MAX TEMP:  54;

RED OAK *      CLOUDY    54  34  47 SE13G21   29.98R
SHENANDOAH *   MOCLDY    54  36  50 SE14G21   29.98R
$$

IAZ047>049-059>061-072>074-084-231300-
   CENTRAL IOWA

CITY           SKY/WX    TMP DP  RH WIND       PRES   REMARKS
AMES           CLOUDY    47  29  49 SE14      30.05R
6HR MIN TEMP:  47; 6HR MAX TEMP:  52;

ANKENY *       CLOUDY    48  32  53 SE12      30.06R
CHARITON *     MOCLDY    48  34  57 E12       30.05R
DES MOINES     CLOUDY    50  31  48 SE10      30.06R
6HR MIN TEMP:  50; 6HR MAX TEMP:  55;

GRINNELL*      PTCLDY    43  32  65 E15       30.08R
KNOXVILLE *    CLOUDY    46  32  57 SE8G18    30.04S
MARSHALLTOWN   PTCLDY    44  32  62 SE13      30.06S
6HR MIN TEMP:  43; 6HR MAX TEMP:  49;

NEWTON *       CLOUDY    46  30  53 SE15      30.07R
PELLA *        PTCLDY    45  34  65 E10       30.08R
PERRY *        CLOUDY    50  30  46 SE13      30.04R
$$

IAZ004>006-015-016-023>025-035-036-231300-
   NORTH CENTRAL IOWA

CITY           SKY/WX    TMP DP  RH WIND       PRES   REMARKS
ALGONA *       CLOUDY    46  32  57 SE14G22   30.04R
CLARION *      CLOUDY    45  32  61 SE14      30.05R
ESTHERVILLE    CLOUDY    46  32  58 SE14      30.02R
6HR MIN TEMP:  45; 6HR MAX TEMP:  49; 6HR PCP: TRACE;

FORT DODGE *   CLOUDY    48  28  46 SE15G22   30.04R
MASON CITY     CLOUDY    43  31  62 SE13      30.09R
6HR MIN TEMP:  43; 6HR MAX TEMP:  48; 6HR PCP: TRACE;

FOREST CITY *  CLOUDY    45  32  61 SE13      30.06R
IOWA FALLS *   MOCLDY    45  30  57 SE13      30.08R
$$

IAZ007>011-017>019-026>030-037>042-050>054-066-231300-
   NORTHEAST IOWA

CITY           SKY/WX    TMP DP  RH WIND       PRES   REMARKS
CEDAR RAPIDS   MOCLDY    41  32  70 SE14      30.10F
6HR MIN TEMP:  40; 6HR MAX TEMP:  47;

CHARLES CITY * CLOUDY    41  30  65 SE14G21   30.10R
CLINTON *      CLEAR     34  28  80 SE5       30.20R WCI  30
DECORAH *      CLEAR     39  28  65 SE8       30.12S WCI  34
DUBUQUE        PTCLDY    34  29  82 CALM      30.16R
6HR MIN TEMP:  33; 6HR MAX TEMP:  41;

MONTICELLO *   PTCLDY    39  32  75 SE7       30.16R WCI  34
OELWEIN *      PTCLDY   N/A N/A N/A SE16      30.11F
WATERLOO       CLOUDY    43  30  60 SE14      30.09F
6HR MIN TEMP:  42; 6HR MAX TEMP:  45;

$$

IAZ064-065-067-068-078-231300-
   EAST CENTRAL IOWA

CITY           SKY/WX    TMP DP  RH WIND       PRES   REMARKS
DAVENPORT      PTCLDY    38  30  73 E7        30.17R WCI  33
6HR MIN TEMP:  34; 6HR MAX TEMP:  44;

IOWA CITY      CLOUDY    41  33  73 E7        30.14S
6HR MIN TEMP:  41; 6HR MAX TEMP:  47;

MT. PLEASANT * CLOUDY    41  30  65 SE9       30.13R
MUSCATINE *    CLOUDY    43  30  61 E8        30.15S
QUAD CITIES    MOCLDY    38  30  73 E6        30.16R WCI  33
6HR MIN TEMP:  32; 6HR MAX TEMP:  46;

$$

IAZ062-063-075>077-085>089-095>099-231300-
   SOUTHEAST IOWA

CITY           SKY/WX    TMP DP  RH WIND       PRES   REMARKS
BURLINGTON     CLOUDY    41  31  67 E9        30.12R
6HR MIN TEMP:  40; 6HR MAX TEMP:  49;

FAIRFIELD *    MOCLDY    41  34  75 SE12G17   30.11R
FORT MADISON * CLEAR     41  32  70 E8        30.14R
KEOKUK *       CLEAR     41  32  70 E9        30.13R
OSKALOOSA *      N/A     42  33  71 E13       30.09R
CENTERVILLE *  MOCLDY    46  32  57 E10       30.07S
OTTUMWA        CLOUDY    42  33  70 E13       30.08R
6HR MIN TEMP:  42; 6HR MAX TEMP:  50;

WASHINGTON *   MOCLDY    41  34  75 E12       30.12S
$$

ABBREVIATIONS USED IN REMARKS
   TC - TEMPERATURES IN CELSIUS
  WCI - WIND CHILL INDEX
   HX - HEAT INDEX
  VSB - VISIBILITY
$$




USA.gov is the U.S. government's official web portal to all federal, state and local government web resources and services.